Location: Ottawa
(45.4170°N, 75.7000°W)
Time: 21:48:08
(UTC-04:00)

ISS - Pass Details

Date: 04 October 2020
Orbit: 417 x 420 km, 51.6° (Epoch: 25 October)

Event Time Altitude Azimuth Distance (km) Brightness Sun altitude
Rises 20:33:00 0° 293° (WNW) 2,369 1.6 -21.1°
Reaches altitude 10° 20:35:17 10° 281° (W) 1,502 0.2 -21.5°
Maximum altitude 20:38:12 27° 221° (SW) 831 -2.1 -22.0°
Enters shadow 20:38:25 27° 214° (SSW) 836 -2.1 -22.1°
